Location: Newport
(44.6370°N, 124.0520°W)
Time: 11:15:48
(UTC-08:00)

Envisat - Pass Details

Date: 12 October 2017
Orbit: 764 x 766 km, 98.2° (Epoch: 10 December)

Event Time Altitude Azimuth Distance (km) Brightness Sun altitude
Exits shadow 20:14:08 33° 88° (E) 1,274 3.6 -18.2°
Maximum altitude 20:14:59 35° 67° (ENE) 1,223 3.6 -18.3°
Drops below altitude 10° 20:19:34 10° 3° (N) 2,315 5.5 -19.2°
Sets 20:22:02 0° 355° (N) 3,246 6.4 -19.6°
